QPF
0.23 0.25 0.22 0.20 0.18 0.18 0.19 0.18 0.15 0.14 0.11 0.10 0.10 0.12 0.13 0.14 0.16 0.16 0.25 0.27 0.25 0.23 0.17 0.16 0.14 0.10 0.08 0.07 0.06 0.05 0.03 0.02 0.01 0.01 0.00 0.01 0.01 0.01 0.01 0.00 0.01 0.01 0.01
0.16 0.16 0.22 0.25 0.21 0.19 0.22 0.26 0.25 0.20 0.14 0.12 0.13 0.13 0.12 0.13 0.15 0.17 0.19 0.26 0.29 0.25 0.20 0.17 0.15 0.12 0.10 0.09 0.08 0.06 0.05 0.04 0.03 0.02 0.01 0.01 0.01 0.01 0.01 0.01 0.01 0.00 0.00
0.12 0.14 0.18 0.20 0.16 0.13 0.16 0.23 0.25 0.26 0.16 0.13 0.13 0.15 0.15 0.15 0.15 0.17 0.15 0.16 0.16 0.16 0.17 0.16 0.14 0.12 0.11 0.11 0.11 0.09 0.07 0.05 0.04 0.03 0.02 0.02 0.01 0.01 0.01 0.01 0.01 0.00 0.00
0.14 0.14 0.13 0.12 0.11 0.12 0.12 0.16 0.22 0.27 0.21 0.16 0.13 0.12 0.13 0.14 0.16 0.17 0.13 0.12 0.14 0.13 0.13 0.13 0.14 0.13 0.12 0.14 0.15 0.12 0.10 0.07 0.05 0.05 0.04 0.03 0.02 0.01 0.02 0.01 0.01 0.01 0.01
0.08 0.09 0.09 0.10 0.11 0.11 0.09 0.10 0.14 0.19 0.21 0.19 0.17 0.13 0.11 0.13 0.16 0.15 0.13 0.11 0.15 0.16 0.15 0.15 0.16 0.17 0.17 0.18 0.15 0.14 0.13 0.11 0.08 0.06 0.06 0.05 0.03 0.02 0.02 0.02 0.01 0.02 0.01
0.05 0.05 0.06 0.07 0.06 0.06 0.06 0.08 0.08 0.12 0.17 0.17 0.18 0.17 0.14 0.12 0.12 0.14 0.13 0.12 0.14 0.16 0.15 0.15 0.16 0.18 0.18 0.17 0.15 0.15 0.16 0.14 0.12 0.09 0.08 0.07 0.05 0.03 0.02 0.02 0.01 0.01 0.01
0.05 0.05 0.05 0.06 0.06 0.08 0.08 0.08 0.07 0.10 0.13 0.15 0.16 0.16 0.16 0.13 0.11 0.12 0.14 0.14 0.13 0.13 0.15 0.19 0.18 0.15 0.15 0.16 0.16 0.17 0.19 0.18 0.15 0.13 0.11 0.08 0.05 0.04 0.03 0.03 0.02 0.02 0.02
0.04 0.03 0.03 0.04 0.05 0.05 0.05 0.05 0.05 0.06 0.10 0.12 0.12 0.14 0.15 0.13 0.09 0.09 0.10 0.11 0.13 0.13 0.14 0.16 0.19 0.15 0.13 0.13 0.15 0.18 0.19 0.19 0.17 0.14 0.12 0.09 0.07 0.05 0.05 0.05 0.04 0.03 0.03
0.02 0.02 0.02 0.03 0.04 0.06 0.06 0.05 0.05 0.05 0.08 0.10 0.11 0.12 0.13 0.14 0.13 0.10 0.09 0.10 0.12 0.14 0.13 0.15 0.17 0.20 0.17 0.16 0.18 0.17 0.14 0.12 0.13 0.13 0.11 0.09 0.08 0.07 0.06 0.06 0.06 0.06 0.05
0.03 0.02 0.02 0.03 0.03 0.04 0.05 0.05 0.05 0.05 0.07 0.11 0.12 0.11 0.12 0.15 0.15 0.11 0.10 0.09 0.10 0.13 0.15 0.15 0.19 0.22 0.20 0.17 0.19 0.19 0.14 0.09 0.09 0.09 0.09 0.08 0.07 0.06 0.06 0.06 0.06 0.06 0.06
0.03 0.02 0.02 0.02 0.03 0.03 0.04 0.05 0.04 0.04 0.04 0.08 0.10 0.10 0.11 0.14 0.11 0.08 0.06 0.06 0.08 0.10 0.13 0.14 0.16 0.19 0.17 0.15 0.14 0.15 0.13 0.09 0.08 0.09 0.08 0.08 0.10 0.10 0.09 0.08 0.07 0.07 0.06
0.02 0.01 0.01 0.01 0.01 0.02 0.02 0.04 0.05 0.04 0.03 0.05 0.08 0.07 0.07 0.09 0.10 0.09 0.08 0.07 0.09 0.09 0.10 0.11 0.12 0.13 0.15 0.16 0.18 0.19 0.13 0.11 0.10 0.11 0.11 0.10 0.11 0.12 0.13 0.13 0.11 0.08 0.06
0.01 0.02 0.01 0.01 0.02 0.04 0.05 0.04 0.03 0.03 0.02 0.03 0.07 0.07 0.06 0.07 0.08 0.10 0.09 0.09 0.09 0.10 0.11 0.10 0.09 0.10 0.11 0.12 0.16 0.19 0.13 0.11 0.11 0.12 0.11 0.09 0.07 0.07 0.08 0.09 0.09 0.08 0.07
0.02 0.02 0.01 0.01 0.02 0.05 0.06 0.05 0.05 0.05 0.04 0.03 0.05 0.06 0.07 0.07 0.07 0.08 0.09 0.10 0.11 0.12 0.12 0.11 0.12 0.13 0.12 0.11 0.13 0.14 0.13 0.14 0.13 0.11 0.09 0.06 0.05 0.05 0.05 0.05 0.06 0.06 0.07
0.02 0.01 0.01 0.01 0.01 0.03 0.03 0.03 0.06 0.08 0.05 0.03 0.04 0.05 0.06 0.06 0.08 0.08 0.08 0.09 0.10 0.11 0.11 0.11 0.13 0.14 0.14 0.14 0.16 0.13 0.11 0.12 0.10 0.08 0.06 0.05 0.05 0.04 0.03 0.03 0.04 0.05 0.05
0.01 0.01 0.01 0.01 0.01 0.03 0.02 0.02 0.05 0.10 0.09 0.04 0.04 0.04 0.04 0.05 0.06 0.09 0.10 0.10 0.10 0.09 0.10 0.11 0.11 0.11 0.12 0.14 0.16 0.13 0.11 0.10 0.08 0.07 0.05 0.04 0.04 0.04 0.03 0.03 0.02 0.02 0.02
0.01 0.01 0.01 0.01 0.01 0.02 0.03 0.04 0.06 0.08 0.14 0.10 0.08 0.06 0.05 0.05 0.05 0.07 0.09 0.09 0.10 0.08 0.08 0.10 0.10 0.11 0.11 0.11 0.11 0.09 0.10 0.08 0.06 0.05 0.04 0.03 0.02 0.02 0.01 0.01 0.01 0.01 0.01
0.02 0.02 0.02 0.02 0.02 0.02 0.02 0.03 0.06 0.08 0.11 0.12 0.11 0.09 0.07 0.07 0.07 0.08 0.08 0.08 0.09 0.09 0.09 0.13 0.13 0.13 0.12 0.11 0.09 0.08 0.07 0.06 0.05 0.04 0.03 0.02 0.02 0.01 0.01 0.01 0.01 0.00 0.00
0.02 0.03 0.03 0.02 0.01 0.01 0.01 0.01 0.02 0.04 0.06 0.08 0.09 0.10 0.09 0.07 0.06 0.07 0.08 0.07 0.07 0.08 0.09 0.10 0.12 0.13 0.12 0.10 0.09 0.08 0.07 0.06 0.04 0.05 0.04 0.03 0.02 0.02 0.01 0.01 0.00 0.00 0.00
0.02 0.03 0.02 0.01 0.01 0.01 0.01 0.01 0.01 0.02 0.03 0.03 0.04 0.04 0.06 0.06 0.05 0.07 0.08 0.06 0.05 0.06 0.08 0.07 0.07 0.08 0.08 0.08 0.07 0.06 0.05 0.05 0.04 0.04 0.03 0.03 0.02 0.01 0.01 0.01 0.00 0.00 0.00
0.02 0.01 0.01 0.01 0.01 0.01 0.01 0.01 0.01 0.01 0.02 0.02 0.02 0.02 0.03 0.05 0.06 0.07 0.09 0.07 0.05 0.05 0.06 0.06 0.05 0.05 0.05 0.06 0.06 0.06 0.04 0.04 0.03 0.02 0.02 0.02 0.01 0.01 0.01 0.01 0.00 0.00 0.00
0.02 0.01 0.01 0.01 0.00 0.01 0.01 0.01 0.01 0.01 0.01 0.02 0.02 0.02 0.02 0.03 0.04 0.05 0.07 0.07 0.06 0.05 0.04 0.04 0.04 0.04 0.03 0.03 0.04 0.04 0.04 0.04 0.04 0.02 0.01 0.01 0.01 0.01 0.01 0.01 0.01 0.01 0.01
0.02 0.02 0.01 0.01 0.01 0.01 0.01 0.02 0.02 0.02 0.02 0.02 0.02 0.02 0.02 0.03 0.03 0.03 0.04 0.05 0.05 0.04 0.03 0.02 0.02 0.02 0.02 0.02 0.03 0.03 0.02 0.02 0.02 0.03 0.03 0.02 0.01 0.01 0.00 0.00 0.00 0.00 0.00
0.02 0.02 0.02 0.02 0.02 0.02 0.02 0.02 0.02 0.02 0.02 0.02 0.02 0.02 0.02 0.02 0.03 0.03 0.02 0.02 0.02 0.02 0.02 0.01 0.01 0.01 0.01 0.01 0.02 0.04 0.03 0.02 0.02 0.02 0.02 0.01 0.02 0.01 0.00 0.01 0.01 0.00 0.00
0.04 0.04 0.03 0.02 0.02 0.03 0.03 0.02 0.01 0.01 0.02 0.02 0.02 0.02 0.02 0.02 0.02 0.02 0.01 0.01 0.01 0.01 0.01 0.01 0.01 0.00 0.00 0.01 0.01 0.02 0.04 0.05 0.04 0.02 0.02 0.01 0.01 0.01 0.00 0.00 0.00 0.00 0.00
0.03 0.03 0.03 0.03 0.02 0.03 0.03 0.02 0.01 0.01 0.01 0.01 0.01 0.01 0.01 0.01 0.01 0.01 0.01 0.01 0.01 0.01 0.00 0.00 0.00 0.00 0.00 0.01 0.01 0.01 0.02 0.04 0.05 0.03 0.02 0.01 0.01 0.01 0.00 0.00 0.00 0.00 0.00
MSLP
1017.32 1017.65 1017.91 1018.11 1018.26 1018.35 1018.40 1018.41 1018.39 1018.34 1018.26 1018.17 1018.08 1018.00 1017.95 1017.92 1017.92 1017.95 1018.00 1018.07 1018.15 1018.25 1018.39 1018.56 1018.77 1019.03 1019.30 1019.59 1019.87 1020.12 1020.34 1020.52 1020.68 1020.84 1021.02 1021.23 1021.48 1021.76 1022.04 1022.30 1022.52 1022.68 1022.78
1016.98 1017.29 1017.55 1017.77 1017.95 1018.10 1018.20 1018.27 1018.30 1018.30 1018.27 1018.22 1018.17 1018.12 1018.09 1018.06 1018.05 1018.05 1018.06 1018.07 1018.10 1018.16 1018.25 1018.40 1018.61 1018.86 1019.16 1019.47 1019.77 1020.05 1020.29 1020.51 1020.71 1020.91 1021.13 1021.39 1021.69 1022.01 1022.33 1022.63 1022.88 1023.08 1023.21
1016.53 1016.80 1017.07 1017.32 1017.55 1017.75 1017.93 1018.07 1018.17 1018.23 1018.26 1018.27 1018.26 1018.25 1018.24 1018.22 1018.20 1018.17 1018.13 1018.08 1018.04 1018.03 1018.07 1018.17 1018.35 1018.60 1018.90 1019.24 1019.58 1019.91 1020.20 1020.47 1020.73 1020.99 1021.26 1021.57 1021.91 1022.27 1022.62 1022.95 1023.24 1023.46 1023.63
1016.02 1016.26 1016.52 1016.79 1017.07 1017.35 1017.60 1017.81 1017.98 1018.11 1018.20 1018.26 1018.30 1018.33 1018.35 1018.35 1018.33 1018.27 1018.19 1018.08 1017.97 1017.88 1017.85 1017.89 1018.03 1018.25 1018.56 1018.91 1019.30 1019.68 1020.06 1020.40 1020.74 1021.07 1021.41 1021.76 1022.14 1022.53 1022.90 1023.25 1023.55 1023.80 1024.00
1015.56 1015.74 1015.97 1016.26 1016.58 1016.90 1017.21 1017.49 1017.72 1017.90 1018.04 1018.15 1018.25 1018.32 1018.38 1018.42 1018.41 1018.35 1018.24 1018.09 1017.92 1017.75 1017.64 1017.61 1017.69 1017.88 1018.17 1018.54 1018.97 1019.42 1019.87 1020.31 1020.73 1021.14 1021.55 1021.96 1022.37 1022.77 1023.16 1023.51 1023.82 1024.09 1024.31
1015.23 1015.33 1015.52 1015.79 1016.12 1016.47 1016.81 1017.12 1017.38 1017.60 1017.78 1017.93 1018.08 1018.21 1018.32 1018.41 1018.44 1018.41 1018.30 1018.13 1017.91 1017.69 1017.50 1017.40 1017.40 1017.54 1017.81 1018.18 1018.64 1019.15 1019.68 1020.21 1020.73 1021.22 1021.70 1022.15 1022.59 1023.00 1023.39 1023.74 1024.05 1024.32 1024.56
1015.09 1015.10 1015.23 1015.45 1015.75 1016.09 1016.43 1016.74 1017.01 1017.24 1017.44 1017.62 1017.81 1018.00 1018.18 1018.34 1018.44 1018.46 1018.39 1018.23 1018.00 1017.73 1017.48 1017.31 1017.25 1017.33 1017.55 1017.92 1018.40 1018.95 1019.55 1020.16 1020.75 1021.32 1021.86 1022.35 1022.81 1023.23 1023.61 1023.94 1024.24 1024.51 1024.76
1015.18 1015.09 1015.13 1015.29 1015.53 1015.82 1016.12 1016.40 1016.65 1016.86 1017.05 1017.26 1017.48 1017.73 1017.99 1018.23 1018.42 1018.52 1018.51 1018.39 1018.17 1017.89 1017.61 1017.39 1017.26 1017.29 1017.48 1017.82 1018.30 1018.88 1019.52 1020.18 1020.84 1021.46 1022.04 1022.56 1023.03 1023.45 1023.81 1024.13 1024.42 1024.69 1024.94
1015.48 1015.28 1015.23 1015.30 1015.47 1015.69 1015.93 1016.14 1016.34 1016.51 1016.69 1016.89 1017.14 1017.44 1017.77 1018.10 1018.38 1018.58 1018.66 1018.60 1018.42 1018.17 1017.88 1017.63 1017.48 1017.46 1017.61 1017.93 1018.39 1018.97 1019.63 1020.31 1021.00 1021.65 1022.24 1022.78 1023.25 1023.65 1024.01 1024.31 1024.59 1024.85 1025.10
1015.91 1015.63 1015.48 1015.47 1015.55 1015.69 1015.85 1015.99 1016.12 1016.24 1016.38 1016.58 1016.83 1017.16 1017.55 1017.95 1018.33 1018.61 1018.78 1018.80 1018.70 1018.50 1018.24 1018.01 1017.85 1017.83 1017.96 1018.25 1018.69 1019.25 1019.89 1020.57 1021.24 1021.88 1022.47 1022.99 1023.45 1023.84 1024.18 1024.48 1024.75 1025.01 1025.27
1016.41 1016.05 1015.83 1015.74 1015.74 1015.79 1015.87 1015.94 1016.00 1016.06 1016.16 1016.32 1016.57 1016.91 1017.32 1017.77 1018.21 1018.57 1018.83 1018.94 1018.93 1018.80 1018.62 1018.45 1018.33 1018.33 1018.46 1018.75 1019.17 1019.70 1020.30 1020.93 1021.57 1022.17 1022.72 1023.20 1023.63 1024.00 1024.33 1024.62 1024.89 1025.16 1025.43
1016.88 1016.47 1016.20 1016.04 1015.98 1015.96 1015.96 1015.96 1015.95 1015.95 1015.99 1016.11 1016.33 1016.66 1017.07 1017.54 1018.01 1018.43 1018.75 1018.95 1019.04 1019.02 1018.95 1018.87 1018.84 1018.90 1019.08 1019.37 1019.78 1020.28 1020.83 1021.40 1021.96 1022.49 1022.98 1023.41 1023.80 1024.14 1024.45 1024.74 1025.02 1025.30 1025.58
1017.27 1016.85 1016.54 1016.35 1016.23 1016.16 1016.09 1016.02 1015.95 1015.89 1015.88 1015.95 1016.12 1016.41 1016.79 1017.23 1017.70 1018.15 1018.52 1018.81 1018.99 1019.10 1019.17 1019.23 1019.32 1019.49 1019.74 1020.07 1020.48 1020.95 1021.44 1021.94 1022.41 1022.85 1023.25 1023.62 1023.95 1024.27 1024.56 1024.85 1025.14 1025.43 1025.72
1017.59 1017.16 1016.84 1016.62 1016.47 1016.35 1016.24 1016.11 1015.98 1015.87 1015.81 1015.82 1015.93 1016.15 1016.48 1016.88 1017.32 1017.76 1018.16 1018.51 1018.80 1019.05 1019.27 1019.48 1019.74 1020.03 1020.39 1020.79 1021.22 1021.67 1022.10 1022.52 1022.90 1023.24 1023.55 1023.84 1024.12 1024.39 1024.67 1024.96 1025.26 1025.56 1025.86
1017.85 1017.44 1017.13 1016.89 1016.71 1016.55 1016.39 1016.22 1016.05 1015.89 1015.77 1015.73 1015.77 1015.93 1016.18 1016.51 1016.90 1017.32 1017.73 1018.14 1018.52 1018.89 1019.27 1019.66 1020.07 1020.52 1020.99 1021.47 1021.94 1022.37 1022.76 1023.10 1023.39 1023.64 1023.86 1024.08 1024.30 1024.54 1024.80 1025.09 1025.38 1025.68 1025.98
1018.12 1017.73 1017.43 1017.18 1016.98 1016.79 1016.59 1016.39 1016.18 1015.98 1015.82 1015.72 1015.71 1015.79 1015.96 1016.22 1016.55 1016.93 1017.35 1017.78 1018.24 1018.72 1019.24 1019.78 1020.36 1020.95 1021.53 1022.08 1022.59 1023.02 1023.38 1023.66 1023.86 1024.03 1024.18 1024.32 1024.50 1024.70 1024.94 1025.22 1025.51 1025.80 1026.08
1018.46 1018.10 1017.80 1017.55 1017.32 1017.10 1016.88 1016.64 1016.40 1016.18 1015.99 1015.85 1015.79 1015.81 1015.92 1016.11 1016.38 1016.71 1017.11 1017.56 1018.07 1018.63 1019.25 1019.91 1020.61 1021.31 1021.98 1022.59 1023.13 1023.56 1023.88 1024.11 1024.27 1024.37 1024.46 1024.56 1024.69 1024.86 1025.08 1025.34 1025.61 1025.88 1026.12
1018.91 1018.58 1018.29 1018.03 1017.78 1017.53 1017.28 1017.02 1016.77 1016.53 1016.32 1016.16 1016.07 1016.06 1016.11 1016.25 1016.46 1016.75 1017.11 1017.55 1018.07 1018.68 1019.35 1020.09 1020.85 1021.61 1022.33 1022.98 1023.52 1023.94 1024.24 1024.43 1024.55 1024.61 1024.66 1024.73 1024.83 1024.98 1025.18 1025.41 1025.65 1025.88 1026.08
1019.47 1019.16 1018.88 1018.61 1018.35 1018.08 1017.81 1017.54 1017.28 1017.04 1016.84 1016.68 1016.58 1016.54 1016.57 1016.66 1016.82 1017.06 1017.38 1017.80 1018.30 1018.90 1019.58 1020.32 1021.09 1021.86 1022.58 1023.21 1023.73 1024.13 1024.41 1024.57 1024.66 1024.71 1024.75 1024.80 1024.89 1025.02 1025.19 1025.38 1025.58 1025.76 1025.91
1020.11 1019.83 1019.56 1019.28 1019.01 1018.73 1018.46 1018.19 1017.94 1017.71 1017.52 1017.38 1017.29 1017.25 1017.26 1017.32 1017.45 1017.64 1017.91 1018.27 1018.73 1019.28 1019.91 1020.60 1021.32 1022.04 1022.70 1023.29 1023.76 1024.12 1024.37 1024.52 1024.60 1024.65 1024.68 1024.74 1024.82 1024.94 1025.08 1025.23 1025.37 1025.50 1025.59
1020.78 1020.52 1020.26 1019.99 1019.72 1019.45 1019.18 1018.92 1018.69 1018.49 1018.33 1018.22 1018.14 1018.11 1018.12 1018.16 1018.25 1018.40 1018.62 1018.91 1019.29 1019.76 1020.30 1020.90 1021.53 1022.15 1022.72 1023.22 1023.63 1023.94 1024.16 1024.29 1024.37 1024.43 1024.48 1024.54 1024.63 1024.73 1024.84 1024.94 1025.03 1025.09 1025.12
1021.41 1021.18 1020.94 1020.68 1020.42 1020.17 1019.92 1019.69 1019.49 1019.32 1019.19 1019.11 1019.06 1019.03 1019.04 1019.07 1019.14 1019.24 1019.40 1019.62 1019.92 1020.28 1020.72 1021.20 1021.70 1022.19 1022.66 1023.06 1023.39 1023.64 1023.82 1023.94 1024.03 1024.10 1024.17 1024.25 1024.33 1024.42 1024.49 1024.55 1024.58 1024.57 1024.54
1021.97 1021.76 1021.54 1021.32 1021.08 1020.85 1020.63 1020.43 1020.26 1020.13 1020.04 1019.98 1019.94 1019.93 1019.94 1019.96 1019.99 1020.06 1020.16 1020.32 1020.52 1020.79 1021.11 1021.46 1021.84 1022.21 1022.55 1022.85 1023.10 1023.29 1023.44 1023.55 1023.64 1023.73 1023.82 1023.91 1024.00 1024.07 1024.12 1024.12 1024.09 1024.02 1023.93
1022.44 1022.26 1022.08 1021.88 1021.68 1021.48 1021.29 1021.13 1020.99 1020.88 1020.81 1020.77 1020.74 1020.73 1020.73 1020.73 1020.75 1020.78 1020.84 1020.93 1021.07 1021.25 1021.47 1021.71 1021.97 1022.23 1022.46 1022.67 1022.84 1022.99 1023.10 1023.20 1023.30 1023.41 1023.51 1023.61 1023.70 1023.75 1023.77 1023.73 1023.64 1023.52 1023.37
1022.85 1022.70 1022.55 1022.39 1022.22 1022.06 1021.90 1021.77 1021.65 1021.56 1021.50 1021.45 1021.43 1021.41 1021.39 1021.38 1021.37 1021.38 1021.40 1021.46 1021.54 1021.65 1021.80 1021.96 1022.13 1022.30 1022.45 1022.59 1022.70 1022.80 1022.89 1022.98 1023.08 1023.19 1023.30 1023.40 1023.48 1023.52 1023.51 1023.43 1023.31 1023.13 1022.94
1023.23 1023.12 1023.00 1022.88 1022.75 1022.61 1022.48 1022.36 1022.26 1022.17 1022.10 1022.05 1022.01 1021.98 1021.94 1021.91 1021.89 1021.87 1021.88 1021.90 1021.96 1022.03 1022.13 1022.24 1022.35 1022.46 1022.56 1022.64 1022.71 1022.77 1022.84 1022.91 1023.00 1023.10 1023.21 1023.31 1023.37 1023.40 1023.36 1023.27 1023.11 1022.90 1022.68
Thickness
5723 5724 5723 5722 5722 5722 5721 5720 5720 5720 5719 5719 5718 5717 5717 5718 5720 5720 5720 5720 5720 5719 5718 5717 5716 5715 5713 5712 5710 5709 5708 5707 5705 5704 5703 5701 5700 5699 5698 5697 5696 5694 5693
5719 5720 5718 5718 5718 5718 5717 5716 5716 5717 5716 5715 5715 5714 5713 5714 5716 5717 5718 5717 5717 5717 5716 5715 5714 5713 5711 5709 5708 5706 5705 5704 5703 5702 5700 5699 5698 5696 5695 5694 5692 5691 5689
5715 5714 5713 5713 5713 5713 5713 5713 5712 5713 5712 5712 5711 5711 5710 5710 5710 5712 5714 5714 5713 5712 5711 5711 5710 5710 5709 5708 5706 5704 5702 5701 5700 5699 5697 5696 5694 5693 5691 5690 5688 5687 5685
5710 5708 5708 5708 5708 5708 5708 5708 5708 5707 5707 5707 5706 5707 5707 5707 5706 5707 5709 5709 5709 5709 5708 5708 5707 5707 5706 5705 5704 5702 5700 5698 5697 5696 5694 5693 5691 5689 5687 5686 5684 5682 5680
5703 5702 5702 5702 5702 5702 5702 5703 5703 5702 5701 5701 5701 5702 5702 5702 5702 5702 5703 5704 5704 5704 5705 5705 5704 5703 5702 5701 5700 5699 5697 5696 5694 5693 5691 5689 5687 5685 5683 5681 5679 5677 5675
5696 5695 5695 5695 5696 5696 5696 5696 5697 5697 5696 5696 5697 5696 5696 5696 5696 5697 5697 5698 5699 5700 5700 5700 5700 5700 5699 5698 5697 5696 5695 5693 5691 5689 5687 5685 5682 5680 5678 5676 5674 5671 5669
5689 5689 5688 5688 5689 5688 5688 5689 5690 5690 5689 5690 5688 5687 5688 5689 5689 5690 5691 5692 5693 5694 5694 5695 5695 5695 5694 5694 5693 5692 5690 5689 5687 5685 5682 5679 5677 5674 5672 5670 5668 5665 5663
5681 5682 5681 5680 5681 5681 5681 5682 5682 5682 5683 5683 5681 5678 5677 5678 5682 5683 5684 5685 5686 5688 5688 5688 5689 5689 5689 5688 5687 5686 5685 5684 5681 5679 5676 5673 5670 5668 5665 5663 5661 5658 5655
5672 5672 5673 5673 5673 5673 5673 5674 5675 5674 5674 5675 5676 5674 5670 5669 5671 5673 5674 5676 5677 5679 5680 5681 5682 5683 5683 5682 5681 5680 5679 5677 5675 5672 5669 5666 5663 5660 5657 5655 5653 5650 5647
5662 5662 5663 5664 5664 5664 5665 5666 5668 5668 5668 5668 5669 5670 5670 5669 5665 5663 5664 5666 5668 5669 5670 5672 5673 5674 5674 5674 5673 5673 5671 5669 5667 5664 5661 5658 5655 5653 5649 5646 5643 5641 5638
5651 5653 5654 5654 5655 5656 5657 5659 5660 5661 5662 5662 5662 5663 5663 5663 5663 5659 5656 5656 5657 5658 5660 5662 5663 5664 5664 5664 5664 5663 5662 5660 5657 5655 5652 5650 5647 5644 5641 5638 5634 5631 5628
5641 5642 5644 5644 5645 5647 5649 5651 5652 5654 5654 5656 5656 5657 5657 5657 5656 5655 5652 5649 5648 5647 5649 5650 5652 5653 5653 5654 5654 5653 5651 5649 5647 5645 5642 5640 5637 5634 5631 5628 5625 5621 5618
5630 5631 5633 5635 5636 5638 5640 5642 5644 5646 5647 5648 5649 5650 5651 5652 5652 5651 5648 5644 5640 5638 5639 5640 5641 5642 5642 5643 5642 5641 5640 5638 5636 5634 5632 5629 5626 5623 5620 5617 5613 5610 5608
5620 5622 5623 5625 5626 5628 5630 5633 5635 5636 5638 5640 5641 5643 5644 5645 5646 5646 5643 5639 5634 5630 5630 5630 5630 5631 5631 5631 5631 5630 5628 5626 5625 5622 5620 5618 5615 5612 5608 5605 5602 5599 5596
5611 5612 5613 5614 5616 5618 5620 5622 5624 5626 5629 5630 5632 5634 5636 5637 5638 5639 5638 5636 5633 5627 5622 5620 5620 5620 5620 5620 5619 5618 5616 5614 5613 5610 5608 5606 5602 5599 5596 5594 5590 5587 5584
5601 5601 5602 5604 5605 5607 5609 5611 5613 5615 5618 5620 5622 5625 5626 5628 5629 5630 5630 5629 5628 5625 5617 5613 5611 5611 5610 5609 5608 5606 5604 5603 5601 5599 5597 5594 5591 5588 5585 5582 5579 5575 5573
5590 5591 5591 5592 5594 5596 5597 5599 5601 5604 5606 5608 5611 5614 5615 5617 5619 5619 5619 5619 5617 5616 5611 5604 5602 5601 5600 5598 5596 5595 5593 5591 5590 5588 5586 5583 5581 5578 5575 5572 5568 5565 5562
5579 5580 5580 5582 5583 5584 5586 5588 5590 5592 5594 5596 5599 5601 5604 5606 5608 5608 5609 5608 5606 5606 5604 5598 5592 5590 5589 5587 5585 5584 5582 5581 5579 5577 5576 5574 5571 5568 5565 5562 5559 5556 5553
5568 5569 5569 5570 5572 5573 5575 5577 5578 5580 5582 5584 5587 5590 5592 5595 5597 5597 5598 5597 5596 5595 5593 5590 5584 5581 5578 5577 5574 5573 5572 5570 5569 5567 5566 5564 5561 5559 5556 5553 5550 5547 5544
5558 5558 5558 5559 5561 5562 5564 5566 5568 5569 5572 5574 5576 5579 5581 5584 5586 5587 5587 5586 5586 5584 5581 5579 5575 5570 5568 5566 5564 5562 5560 5560 5559 5559 5557 5555 5553 5550 5547 5545 5542 5539 5537
5547 5547 5548 5549 5551 5552 5553 5556 5558 5560 5561 5563 5565 5568 5571 5573 5575 5577 5577 5575 5575 5573 5570 5568 5564 5561 5558 5557 5556 5554 5552 5551 5550 5550 5548 5546 5544 5542 5540 5538 5536 5533 5531
5538 5538 5538 5539 5540 5541 5543 5546 5548 5549 5551 5552 5554 5557 5560 5561 5563 5565 5566 5566 5566 5565 5561 5559 5555 5553 5551 5550 5549 5548 5545 5543 5541 5541 5539 5537 5536 5534 5533 5532 5530 5528 5526
5530 5530 5529 5530 5530 5532 5535 5537 5539 5540 5541 5542 5544 5546 5549 5550 5552 5554 5554 5554 5554 5554 5554 5552 5549 5546 5545 5544 5543 5541 5539 5537 5535 5534 5531 5529 5529 5527 5528 5527 5526 5524 5522
5524 5523 5522 5523 5523 5525 5527 5529 5530 5531 5532 5533 5535 5537 5538 5539 5542 5544 5544 5544 5544 5544 5544 5543 5542 5540 5540 5539 5538 5536 5534 5531 5529 5528 5526 5523 5522 5522 5524 5523 5522 5520 5518
5519 5518 5517 5517 5518 5518 5521 5523 5524 5524 5524 5525 5527 5528 5530 5531 5532 5535 5536 5535 5534 5534 5535 5535 5534 5534 5533 5533 5532 5530 5527 5524 5520 5520 5520 5519 5517 5516 5517 5518 5519 5517 5516
5515 5515 5513 5513 5513 5514 5516 5518 5519 5519 5518 5518 5519 5521 5523 5524 5525 5527 5527 5527 5525 5525 5526 5527 5527 5527 5527 5527 5526 5525 5522 5518 5515 5514 5516 5514 5512 5511 5511 5513 5514 5514 5513